Broomfield, CO

1:56 AM MDT on August 24, 2016 (GMT -0600)
Jeffco

Weather History for KBJC - March, 2014

Change the Weather History Date:

Monday, March 31, 2014

  Actual Average Record
Temperature  
Mean Temperature 46 °F -  
Max Temperature 55 °F 53 °F 80 °F (2012)
Min Temperature 37 °F 32 °F 19 °F (1988)
Degree Days  
Heating Degree Days 19    
Moisture  
Dew Point 17 °F    
Average Humidity 33    
Maximum Humidity 56    
Minimum Humidity 16    
Precipitation  
Precipitation 0.00 in - - ()
Sea Level Pressure  
Sea Level Pressure 29.78 in    
Wind  
Wind Speed 17 mph (WNW)    
Max Wind Speed 32 mph    
Max Gust Speed 44 mph    
Visibility 11 miles    
Events      
Averages and records for this station are not official NWS values.
T = Trace of Precipitation, MM = Missing Value Source: NWS Daily Summary

Daily Weather History Graph

Daily Weather History Graph

Search for Another Location

Airport or City:

Trip Planner

Search our weather history database for the weather conditions in past years. The results will help you decide how hot, cold, wet, or windy it might be!

Date:

Astronomy

Mar. 31, 2014 Rise Set
Actual Time 6:45 AM MDT 7:23 PM MDT
Civil Twilight 6:18 AM MDT 7:50 PM MDT
Nautical Twilight 5:46 AM MDT 8:23 PM MDT
Astronomical Twilight 5:13 AM MDT 8:56 PM MDT
Moon 7:11 AM MDT (3/31) 8:45 PM MDT (3/31)
Length of Visible Light 13h 32m
Length of Day
12h 37m
New Moon, 1% of the Moon is Illuminated
Mar 31
New Moon
Apr 7
First Quarter
Apr 15
Full
Apr 22
Last Quarter
Apr 29
New

Hourly Weather History & Observations

Time (MDT) Temp. Windchill Dew Point Humidity Pressure Visibility Wind Dir Wind Speed Gust Speed Precip Events Conditions
12:15 AM 44.6 °F 42.2 °F 19.4 °F 37% 29.52 in 10.0 mi NE 4.6 mph - N/A   Clear
12:49 AM 44.6 °F 41.4 °F 21.2 °F 39% 29.52 in 10.0 mi NNE 5.8 mph - N/A   Scattered Clouds
1:33 AM 44.6 °F 37.2 °F 24.8 °F 46% 29.56 in 10.0 mi WNW 17.3 mph 38.0 mph N/A   Scattered Clouds
1:53 AM 44.6 °F 36.9 °F 21.2 °F 39% 29.57 in 10.0 mi WSW 18.4 mph 26.5 mph N/A   Scattered Clouds
2:35 AM 42.8 °F 33.3 °F 19.4 °F 39% 29.57 in 10.0 mi West 24.2 mph 33.4 mph N/A   Clear
2:55 AM 44.6 °F 35.3 °F 17.6 °F 34% 29.59 in 10.0 mi West 26.5 mph 39.1 mph N/A   Clear
3:15 AM 42.8 °F 34.0 °F 17.6 °F 36% 29.61 in 10.0 mi WNW 20.7 mph 43.7 mph N/A   Clear
3:33 AM 42.8 °F 33.3 °F 17.6 °F 36% 29.62 in 10.0 mi WNW 24.2 mph 38.0 mph N/A   Clear
3:53 AM 44.6 °F 35.5 °F 15.8 °F 31% 29.63 in 10.0 mi WNW 25.3 mph 33.4 mph N/A   Clear
4:46 AM 42.8 °F 34.5 °F 14.0 °F 31% 29.64 in 10.0 mi NW 18.4 mph 34.5 mph N/A   Clear
5:07 AM 41.0 °F 31.9 °F 14.0 °F 33% 29.66 in 10.0 mi West 19.6 mph 25.3 mph N/A   Clear
5:35 AM 42.8 °F 34.0 °F 14.0 °F 31% 29.69 in 10.0 mi West 20.7 mph 29.9 mph N/A   Clear
5:43 AM 42.8 °F 33.8 °F 14.0 °F 31% 29.69 in 10.0 mi West 21.9 mph 35.7 mph N/A   Clear
5:45 AM 42.8 °F 31.9 °F 14.0 °F 31% 29.69 in 15.0 mi West 32.2 mph 38.0 mph N/A   Scattered Clouds
7:45 AM 42.8 °F 35.1 °F 14.0 °F 31% 29.74 in 70.0 mi West 16.1 mph - N/A   Scattered Clouds
8:45 AM 46.4 °F 40.7 °F 14.0 °F 27% 29.78 in 70.0 mi WNW 12.7 mph 20.7 mph N/A   Scattered Clouds
9:47 AM 48.2 °F - 12.2 °F 24% 29.81 in 60.0 mi West 19.6 mph 26.5 mph N/A   Partly Cloudy
10:47 AM 50.0 °F - 12.2 °F 22% 29.84 in 60.0 mi WSW 23.0 mph 29.9 mph N/A   Scattered Clouds
11:20 AM 50.0 °F - 12.2 °F 22% 29.86 in 60.0 mi West 28.8 mph - N/A   Scattered Clouds
11:47 AM 50.0 °F - 15.8 °F 26% 29.88 in 60.0 mi West 20.7 mph 32.2 mph N/A   Scattered Clouds
12:45 PM 50.0 °F - 12.2 °F 22% 29.90 in 30.0 mi West 24.2 mph 32.2 mph N/A   Partly Cloudy
1:47 PM 51.8 °F - 14.0 °F 22% 29.90 in 30.0 mi WSW 28.8 mph 35.7 mph N/A   Scattered Clouds
2:47 PM 53.6 °F - 12.2 °F 19% 29.91 in 30.0 mi West 26.5 mph 33.4 mph N/A   Mostly Cloudy
3:47 PM 53.6 °F - 10.4 °F 18% 29.89 in 50.0 mi NW 17.3 mph 34.5 mph N/A   Scattered Clouds
4:45 PM 55.4 °F - 10.4 °F 17% 29.88 in 60.0 mi NW 20.7 mph 28.8 mph N/A   Scattered Clouds
5:46 PM 53.6 °F - 8.6 °F 16% 29.88 in 70.0 mi NW 17.3 mph 23.0 mph N/A   Mostly Cloudy
6:53 PM 50.0 °F - 30.2 °F 47% 29.90 in 70.0 mi NNW 12.7 mph - N/A   Mostly Cloudy
7:23 PM 46.4 °F 39.0 °F 15.8 °F 29% 29.92 in 50.0 mi East 19.6 mph - N/A   Mostly Cloudy
7:46 PM 46.4 °F 39.0 °F 17.6 °F 32% 29.93 in 30.0 mi East 19.6 mph 25.3 mph N/A   Mostly Cloudy
8:47 PM 41.0 °F 35.2 °F 19.4 °F 42% 30.00 in 30.0 mi East 9.2 mph - N/A   Scattered Clouds
9:53 PM 39.2 °F 33.6 °F 21.2 °F 49% 30.02 in 20.0 mi East 8.1 mph - N/A   Scattered Clouds
11:15 PM 37.4 °F 30.8 °F 23.0 °F 56% 30.02 in 10.0 mi SE 9.2 mph - N/A   Scattered Clouds
11:34 PM 37.4 °F 32.8 °F 23.0 °F 56% 30.01 in 10.0 mi ESE 5.8 mph - N/A   Mostly Cloudy
11:55 PM 37.4 °F 30.8 °F 23.0 °F 56% 29.99 in 10.0 mi East 9.2 mph - N/A   Overcast